Regional Weather Roundup
Issued by NWS

Home | Current Version | Previous Version | Graphics & Text | Print | Product List | Glossary Off
Versions: 1 2 3 4 5 6 7 8 9 10 11 12 13 14 15 16 17 18 19 20 21 22 23 24 25 26 27 28 29 30 31 32 33 34 35 36 37 38 39 40 41 42 43 44 45 46 47 48 49 50

000
ASUS43 KMKX 232311
RWRWI

WISCONSIN REGIONAL WEATHER ROUNDUP
NATIONAL WEATHER SERVICE MILWAUKEE/SULLIVAN WI
600 PM CDT WED AUG 23 2017

NOTE: "FAIR" INDICATES FEW OR NO CLOUDS BELOW 12,000 FEET WITH NO
SIGNIFICANT WEATHER AND/OR OBSTRUCTIONS TO VISIBILITY.

WIZ001-002-006>008-014>016-023>028-240000-
NORTHWEST WISCONSIN

CITY           SKY/WX    TMP DP  RH WIND       PRES   REMARKS
SUPERIOR ARPT    N/A     68  50  53 CALM      30.04S
ASHLAND        SUNNY     64  49  57 NE3       30.07S
HAYWARD        MOSUNNY   65  48  54 N3        30.06S
SIREN          MOSUNNY   69  46  44 N5        30.06S
CUMBERLAND     PTSUNNY   66  45  45 NE6       30.06S
RICE LAKE      MOSUNNY   68  48  49 N3        30.07S
CHETEK         SUNNY     68  50  52 NW3       30.06S
LADYSMITH      SUNNY     65  49  55 NW5       30.07S
EAU CLAIRE     SUNNY     70  48  45 N7        30.04S
MENOMONIE      MOSUNNY   70  48  46 N6        30.05S
NEW RICHMOND   MOSUNNY   70  49  47 CALM      30.05F
OSCEOLA        SUNNY     71  51  48 N5        30.07S
$$

WIZ003>005-009-010-017-018-240000-
NORTH CENTRAL WISCONSIN

CITY           SKY/WX    TMP DP  RH WIND       PRES   REMARKS
MANITOWISH WTR CLOUDY    59  41  50 N5        30.07S
ARBOR VITAE    SUNNY     62  44  51 N13G18    30.06S
WOODRUFF       SUNNY     62  44  51 N13G18    30.06S
RHINELANDER    SUNNY     63  42  46 N8        30.06R
EAGLE RIVER    SUNNY     59  40  47 NW8       30.06S
LAND O LAKES   MOSUNNY   58  41  53 N7        30.08S
PHILLIPS       SUNNY     62  46  55 N3        30.05S
TOMAHAWK         N/A     64  45  48 NW7       30.05F
MEDFORD        MOSUNNY   62  48  59 N6        30.05S
MERRILL        MOSUNNY   66  46  48 NW7       30.05S
$$

WIZ029-030-035-036-043>047-240000-
CENTRAL WISCONSIN

CITY           SKY/WX    TMP DP  RH WIND       PRES   REMARKS
WAUSAU         SUNNY     68  45  43 NW7       30.02S
MOSINEE        PTSUNNY   66  48  52 MISG      30.04S
MARSHFIELD     SUNNY     68  46  45 NW10      30.04S
STEVENS POINT  CLOUDY    68  47  46 NW9       30.03S
WAUPACA        SUNNY     73  46  38 NW6       30.01S
WAUTOMA        SUNNY     71  49  45 NW7       30.02S
WISC RAPIDS    MOSUNNY   70  49  47 NW10      30.04S
CAMP DOUGLAS   MOSUNNY   68  50  52 NW7       30.03S
$$

WIZ011>013-019>022-031-037>040-048>050-240000-
NORTHEAST WISCONSIN

CITY           SKY/WX    TMP DP  RH WIND       PRES   REMARKS
ANTIGO         SUNNY     64  46  51 NW9       30.04S
SHAWANO        SUNNY     72  47  40 NW6       30.00S
OCONTO         PTSUNNY   68  52  56 S5        30.00S
STURGEON BAY   PTSUNNY   65  51  60 NE3       30.01S
GREEN BAY      CLOUDY    68  54  60 NW6       30.00R
MANITOWOC      CLOUDY    65  55  70 E6        30.02R
APPLETON       MOSUNNY   72  43  35 W14       30.00R
CLINTONVILLE   MOSUNNY   70  43  37 N9        30.01S
OSHKOSH        SUNNY     70  51  51 NW7       30.00S
$$

WIZ032>034-041-042-053>061-240000-
SOUTHWEST WISCONSIN

CITY           SKY/WX    TMP DP  RH WIND       PRES   REMARKS
LA CROSSE      MOSUNNY   76  53  44 NW12      30.02F
SPARTA         SUNNY     70  51  49 NW6       30.05R
VIROQUA        PTSUNNY   70  53  54 NW9       30.05S
BOSCOBEL       SUNNY     76  50  40 N7        30.03S
PRAIRIE DU CHI SUNNY     74  46  35 NW5       30.02F
PLATTEVILLE    MOSUNNY   72  53  51 N8        30.04S
$$

WIZ056-057-062-063-064-067-068-240000-
SOUTH CENTRAL WISCONSIN

CITY           SKY/WX    TMP DP  RH WIND       PRES   REMARKS
REEDSBURG      MOSUNNY   72  49  44 NW8       30.03S
BARABOO/DELLS  SUNNY     70  47  43 NW6       30.03S
LONE ROCK      MOSUNNY   74  53  48 NW7       30.02F
MINERAL POINT  SUNNY     73  50  43 NW7       30.04S
MADISON        PTSUNNY   73  53  49 NW8       30.02S
MIDDLETON      MOSUNNY   73  51  46 W8        30.03S
WATERTOWN      MOSUNNY   71  51  49 NW9       30.01S
MONROE         SUNNY     72  52  49 NW6       30.03F
JANESVILLE     MOSUNNY   73  52  46 NW12      30.01S
$$

WIZ051-052-058>065-066-070>072-240000-
SOUTHEAST WISCONSIN

CITY           SKY/WX    TMP DP  RH WIND       PRES   REMARKS
MILWAUKEE      PTSUNNY   70  55  59 S10       30.00F
WAUKESHA       PTSUNNY   68  50  52 NW9       30.02F
MILWAUKEE/TIMM MOSUNNY   72  43  35 NW9       30.01S
RACINE         PTSUNNY   69  56  62 SE6       30.03S
KENOSHA        MOSUNNY   72  55  55 CALM      30.01F
FOND DU LAC    SUNNY     71  48  43 NW6       30.01S
SHEBOYGAN      MOSUNNY   71  50  47 VRB6      30.00S
WEST BEND      SUNNY     68  48  49 N6        30.01F
JUNEAU         SUNNY     67  50  53 CALM      30.02F
$$

LSZ147-162-240000-
LAKE SUPERIOR

STATION/POSITION TIME  TEMP    WIND        PRES    WAVE
                       AIR SEA DIR/SP/G            HT/PER
                 (UTC) (F)     (DEG/KT/KT) (MB)    (FT/S)
W MID LAKE BUOY  2250   60 60  230/  8/ 10 1017.6F   1/ 3
DEVILS ISLAND    2300   62     150/  5/  6 1018.0F
PORT WING        2140   91      20/  3/  4 1017.9F
SAXON HARBOR     2230   64      50/  5/  6 1018.3R
$$

LMZ867-665-643>646-240000-
LAKE MICHIGAN

STATION/POSITION TIME  TEMP    WIND        PRES    WAVE
                       AIR SEA DIR/SP/G            HT/PER
                 (UTC) (F)     (DEG/KT/KT) (MB)    (FT/S)
S GREEN BAY BUOY 2300   68 72  100/  4/  6 1015.8
N MID LAKE BUOY  2250   62 67   70/  6/  8 1016.6R   1/ 4
NORTHPORT PIER   2240   67     360/  7/ 10 1015.9R
KEWAUNEE LAKESHO 2242   65     150/  9/ 10 1015.4R
SHEBOYGAN LAKESH 2300   65     140/ 10/ 11 1015.6F
PORT WASHINGTON  2240   69     120/  8/  9 1016.6F
ATWATER BUOY     2209   68 71  140/  8/ 10 1016.3F
MILWAUKEE LAKESH 2250   67     140/  7/  8   N/A
S MID LAKE BUOY  2250   67 71   40/  4/  6 1016.3F   2/ 6
KENOSHA   LAKESH 2300   70     120/  8/ 10 1015.9
$$

TC  - TEMPERATURE IN CELSIUS
VSB - VISIBILITY IN STATUTE MILES
WCI - WIND CHILL INDEX
HX  - HEAT INDEX




USA.gov is the U.S. government's official web portal to all federal, state and local government web resources and services.